When you browse on this site, cookies collect data to enhance your experience and personalize the content and advertising you see.
Visit our Privacy Policy to learn more. By continuing to use the site, you agree to this use of cookies and data.
  • In Austria
  • List of Countries
  • For 7 days
  • Water Temperature
  • Satellite Maps
  • Weather Map
  • News
  • Weather Widgets
  • user-avatar
    Login

    Hourly Weather Gedzhon

    Today, 24 March, Sunday

    Time Temperature Precipitation Wind Pressure Humidity
    00:00 +1°C° 0 mm 1 mps 751 mmHg 61%
    01:00 +1°C° 0 mm 1 mps 751 mmHg 61%
    02:00 0°C° 0 mm 1 mps 751 mmHg 59%
    03:00 0°C° 0 mm 1 mps 751 mmHg 59%
    04:00 0°C° 0 mm 1 mps 751 mmHg 59%
    05:00 0°C° 0 mm 1 mps 751 mmHg 59%
    06:00 +2°C° 0 mm 1 mps 752 mmHg 53%
    07:00 +3°C° 0 mm 1 mps 752 mmHg 48%
    08:00 +5°C° 0 mm 1 mps 752 mmHg 34%
    09:00 +5°C° 0 mm 2 mps 752 mmHg 32%
    10:00 +6°C° 0 mm 2 mps 751 mmHg 31%
    11:00 +8°C° 0 mm 2 mps 751 mmHg 29%
    12:00 +8°C° 0 mm 3 mps 751 mmHg 31%
    13:00 +8°C° 0 mm 4 mps 750 mmHg 33%
    14:00 +9°C° 0 mm 3 mps 749 mmHg 36%
    15:00 +7°C° 0 mm 4 mps 749 mmHg 41%
    16:00 +6°C° 0 mm 4 mps 749 mmHg 45%
    17:00 +5°C° 0 mm 4 mps 749 mmHg 49%
    18:00 +4°C° 0 mm 3 mps 749 mmHg 55%
    19:00 +4°C° 0 mm 2 mps 749 mmHg 60%
    20:00 +3°C° 0 mm 1 mps 749 mmHg 64%
    21:00 +3°C° 0 mm 1 mps 749 mmHg 66%
    22:00 +3°C° 0 mm 1 mps 749 mmHg 67%
    23:00 +2°C° 0 mm 1 mps 749 mmHg 69%

    Tomorrow, 25 March, Monday

    Time Temperature Precipitation Wind Pressure Humidity
    00:00 +2°C° 0 mm 1 mps 749 mmHg 70%
    01:00 +2°C° 0 mm 1 mps 749 mmHg 70%
    02:00 +2°C° 0 mm 1 mps 748 mmHg 71%
    03:00 +2°C° 0 mm 1 mps 748 mmHg 71%
    04:00 +2°C° 0 mm 1 mps 748 mmHg 72%
    05:00 +2°C° 0 mm 1 mps 748 mmHg 73%
    06:00 +4°C° 0 mm 1 mps 748 mmHg 70%
    07:00 +4°C° 0 mm 2 mps 748 mmHg 66%
    08:00 +6°C° 0 mm 2 mps 748 mmHg 63%
    09:00 +8°C° 0 mm 2 mps 748 mmHg 60%
    10:00 +10°C° 0 mm 3 mps 748 mmHg 57%
    11:00 +12°C° 0 mm 3 mps 748 mmHg 54%
    12:00 +12°C° 0 mm 4 mps 747 mmHg 53%
    13:00 +13°C° 0 mm 4 mps 747 mmHg 51%
    14:00 +13°C° 0 mm 5 mps 747 mmHg 50%
    15:00 +13°C° 0 mm 4 mps 747 mmHg 52%
    16:00 +12°C° 0 mm 4 mps 746 mmHg 55%
    17:00 +11°C° 0 mm 4 mps 746 mmHg 58%
    18:00 +10°C° 0 mm 3 mps 747 mmHg 64%
    19:00 +8°C° 0 mm 3 mps 747 mmHg 71%
    20:00 +7°C° 0 mm 2 mps 747 mmHg 77%
    21:00 +6°C° 0 mm 2 mps 747 mmHg 79%
    22:00 +6°C° 0 mm 2 mps 747 mmHg 81%
    23:00 +6°C° 0 mm 2 mps 747 mmHg 83%

    Day after tomorrow, 26 March, Tuesday

    Time Temperature Precipitation Wind Pressure Humidity
    00:00 +5°C° 0 mm 2 mps 747 mmHg 85%
    01:00 +5°C° 0 mm 2 mps 747 mmHg 88%
    02:00 +5°C° 0 mm 2 mps 747 mmHg 91%
    03:00 +5°C° 0 mm 2 mps 747 mmHg 92%
    04:00 +5°C° 0 mm 2 mps 747 mmHg 93%
    05:00 +6°C° 0 mm 2 mps 747 mmHg 94%
    06:00 +7°C° 0 mm 2 mps 747 mmHg 90%
    07:00 +9°C° 0 mm 2 mps 748 mmHg 86%
    08:00 +10°C° 0 mm 2 mps 748 mmHg 81%
    09:00 +13°C° 0 mm 2 mps 749 mmHg 69%
    10:00 +13°C° 0 mm 3 mps 749 mmHg 56%
    11:00 +16°C° 0 mm 3 mps 749 mmHg 43%
    12:00 +17°C° 0 mm 3 mps 749 mmHg 37%
    13:00 +17°C° 0 mm 4 mps 749 mmHg 30%
    14:00 +18°C° 0 mm 4 mps 749 mmHg 24%
    15:00 +17°C° 0 mm 3 mps 749 mmHg 26%
    16:00 +16°C° 0 mm 3 mps 749 mmHg 29%
    17:00 +15°C° 0 mm 2 mps 749 mmHg 32%
    18:00 +14°C° 0 mm 1 mps 749 mmHg 35%
    19:00 +12°C° 0 mm 1 mps 749 mmHg 39%
    20:00 +10°C° 0 mm 1 mps 749 mmHg 42%
    21:00 +10°C° 0 mm 1 mps 749 mmHg 45%
    22:00 +9°C° 0 mm 1 mps 749 mmHg 48%
    23:00 +9°C° 0 mm 1 mps 750 mmHg 51%

    27 March, Wednesday

    Time Temperature Precipitation Wind Pressure Humidity
    00:00 +9°C° 0 mm 1 mps 749 mmHg 52%
    01:00 +7°C° 0 mm 2 mps 749 mmHg 53%
    02:00 +7°C° 0 mm 2 mps 748 mmHg 54%
    03:00 +8°C° 0 mm 2 mps 748 mmHg 57%
    04:00 +8°C° 0 mm 2 mps 747 mmHg 61%
    05:00 +8°C° 0 mm 2 mps 747 mmHg 65%
    06:00 +10°C° 0 mm 4 mps 747 mmHg 64%
    07:00 +12°C° 0 mm 5 mps 747 mmHg 63%
    08:00 +13°C° 0 mm 6 mps 747 mmHg 63%
    09:00 +15°C° 0 mm 6 mps 746 mmHg 56%
    10:00 +16°C° 0 mm 7 mps 746 mmHg 49%
    11:00 +18°C° 0 mm 7 mps 745 mmHg 43%
    12:00 +18°C° 0 mm 7 mps 745 mmHg 40%
    13:00 +18°C° 0 mm 8 mps 744 mmHg 37%
    14:00 +18°C° 0 mm 8 mps 744 mmHg 34%
    15:00 +17°C° 0 mm 8 mps 743 mmHg 41%
    16:00 +16°C° 0 mm 7 mps 743 mmHg 47%
    17:00 +14°C° 0 mm 6 mps 743 mmHg 54%
    18:00 +14°C° 0 mm 6 mps 743 mmHg 63%
    19:00 +13°C° 0 mm 6 mps 743 mmHg 72%
    20:00 +12°C° 0 mm 5 mps 744 mmHg 81%
    21:00 +10°C° 0 mm 5 mps 744 mmHg 83%
    22:00 +11°C° 0 mm 4 mps 744 mmHg 86%
    23:00 +10°C° 0 mm 4 mps 744 mmHg 88%

    28 March, Thursday

    Time Temperature Precipitation Wind Pressure Humidity
    00:00 +9°C° 0 mm 3 mps 744 mmHg 84%
    01:00 +9°C° 0 mm 3 mps 744 mmHg 81%
    02:00 +8°C° 0 mm 2 mps 744 mmHg 77%
    03:00 +7°C° 0 mm 3 mps 745 mmHg 73%
    04:00 +5°C° 0 mm 3 mps 745 mmHg 68%
    05:00 +4°C° 0 mm 3 mps 745 mmHg 63%
    06:00 +5°C° 0 mm 3 mps 746 mmHg 56%
    07:00 +5°C° 0 mm 3 mps 746 mmHg 49%
    08:00 +7°C° 0 mm 3 mps 746 mmHg 43%
    09:00 +8°C° 0 mm 3 mps 746 mmHg 38%
    10:00 +9°C° 0 mm 3 mps 746 mmHg 34%
    11:00 +11°C° 0 mm 3 mps 746 mmHg 29%
    12:00 +11°C° 0 mm 3 mps 746 mmHg 28%
    13:00 +12°C° 0 mm 3 mps 745 mmHg 28%
    14:00 +12°C° 0 mm 3 mps 745 mmHg 27%
    15:00 +11°C° 0 mm 3 mps 745 mmHg 31%
    16:00 +10°C° 0 mm 3 mps 745 mmHg 34%
    17:00 +9°C° 0 mm 2 mps 745 mmHg 38%
    18:00 +8°C° 0 mm 2 mps 745 mmHg 41%
    19:00 +7°C° 0 mm 2 mps 746 mmHg 45%
    20:00 +6°C° 0 mm 2 mps 746 mmHg 48%
    21:00 +6°C° 0 mm 2 mps 746 mmHg 50%
    22:00 +5°C° 0 mm 2 mps 746 mmHg 52%
    23:00 +5°C° 0 mm 2 mps 746 mmHg 54%

    29 March, Friday

    Time Temperature Precipitation Wind Pressure Humidity
    00:00 +5°C° 0 mm 1 mps 746 mmHg 54%
    01:00 +5°C° 0 mm 1 mps 746 mmHg 54%
    02:00 +4°C° 0 mm 1 mps 746 mmHg 54%
    03:00 +4°C° 0 mm 1 mps 746 mmHg 53%
    04:00 +4°C° 0 mm 1 mps 746 mmHg 51%
    05:00 +4°C° 0 mm 1 mps 746 mmHg 49%
    06:00 +4°C° 0 mm 2 mps 746 mmHg 43%
    07:00 +4°C° 0 mm 3 mps 746 mmHg 38%
    08:00 +5°C° 0 mm 4 mps 746 mmHg 32%
    09:00 +6°C° 0 mm 4 mps 746 mmHg 29%
    10:00 +7°C° 0 mm 4 mps 746 mmHg 26%
    11:00 +9°C° 0 mm 5 mps 746 mmHg 24%
    12:00 +9°C° 0 mm 5 mps 746 mmHg 24%
    13:00 +9°C° 0 mm 5 mps 745 mmHg 24%
    14:00 +9°C° 0 mm 6 mps 745 mmHg 25%
    15:00 +8°C° 0 mm 6 mps 745 mmHg 28%
    16:00 +7°C° 0 mm 5 mps 746 mmHg 31%
    17:00 +6°C° 0 mm 5 mps 746 mmHg 34%
    18:00 +5°C° 0 mm 4 mps 747 mmHg 40%
    19:00 +4°C° 0 mm 4 mps 747 mmHg 47%
    20:00 +3°C° 0 mm 3 mps 748 mmHg 54%
    21:00 +4°C° 0.1 mm 2 mps 748 mmHg 60%
    22:00 +3°C° 0.1 mm 2 mps 748 mmHg 66%
    23:00 +3°C° 0.1 mm 2 mps 748 mmHg 72%
    Show more